Tracking 28790 objects as of 19-Apr-2024
HD Live streaming from Space Station
objects crossing your sky now

ONEWEB-0008

Track ONEWEB-0008 now!
10-day predictions


NORAD ID: 44059
Int'l Code: 2019-010C
Perigee: 1,203.3 km
Apogee: 1,206.4 km
Inclination: 87.9 °
Period: 109.4 minutes
Semi major axis: 7575 km
RCS: Unknown
Launch date: February 27, 2019
Source: United Kingdom (UK)
Launch site: FRENCH GUIANA (FRGUI)
Your satellite tracking list
Your tracking list is empty




NASA's NSSDC Master Catalog

Two Line Element Set (TLE):
1 44059U 19010C   24109.77143714  .00000099  00000-0  22449-3 0  9995
2 44059  87.9153  25.9062 0002041  72.8585 287.2769 13.16595548247857
Source of the keplerian elements: AFSPC